Tracking 26217 objects as of 27-Sep-2022
HD Live streaming from Space Station
objects crossing your sky now

STARLETTE

Track STARLETTE now!
10-day predictions
STARLETTE is classified as:


NORAD ID: 7646
Int'l Code: 1975-010A
Perigee: 811.9 km
Apogee: 1,113.7 km
Inclination: 49.8 °
Period: 104.2 minutes
Semi major axis: 7333 km
RCS: 0.168 m2 (medium)
Launch date: February 6, 1975
Source: France (FR)
Launch site: FRENCH GUIANA (FRGUI)
aabbcc
Your satellite tracking list
Your tracking list is empty




NASA's NSSDC Master Catalog

Two Line Element Set (TLE):
1 07646U 75010A   22270.55023885 -.00000156  00000-0 -12178-4 0  9992
2 07646  49.8249  67.2329 0205746 254.8620 102.9432 13.82313556406605
Source of the keplerian elements: AFSPC